Wind_Speed
6 6 4 4 2 1 1 3 2 2 2 1 3 1 4 5 2 4 3 3 3 3 1 3 2 3 1 1 6 6 2 3 4 4 3 2 10 20 18 23 31 30 29 29 28 26 25 24 23 24 24 24 24 23 22 22 23 23 24 24 24 23 23 23 23 25 25 25 25 25 24 24 24 24 23 23 25 24 24 25 24 22 22 22 22 22 22 21 20 20 21 21 20 20 20 20 20
7 6 4 3 2 2 1 3 2 3 3 2 4 4 4 2 1 3 2 2 3 5 3 2 1 3 2 1 4 5 3 2 3 2 1 7 17 16 17 27 30 29 30 29 29 27 26 24 23 25 24 24 24 23 22 22 23 23 24 23 24 23 23 24 23 24 24 25 24 23 23 23 23 22 22 22 22 23 23 23 23 23 22 22 22 22 22 21 20 20 20 20 19 19 18 18 18
7 5 3 2 2 3 1 3 2 1 2 3 5 4 2 2 3 1 4 6 6 7 5 4 2 1 1 3 3 2 1 2 4 2 3 11 12 12 20 28 29 29 30 29 29 27 27 24 23 24 23 23 23 23 22 21 22 23 24 23 23 23 23 24 23 23 23 23 24 24 23 22 22 22 22 22 21 22 22 22 22 22 22 23 22 22 21 20 19 19 19 18 18 17 17 16 15
7 4 2 2 2 4 3 3 2 4 2 4 4 5 2 4 4 2 6 7 7 8 4 2 2 2 2 3 2 2 2 1 4 3 4 6 8 16 24 27 27 27 29 29 28 28 26 24 23 24 23 22 22 23 22 21 22 23 24 24 23 23 23 23 22 23 22 22 23 23 23 22 22 23 23 23 22 22 21 21 21 21 22 22 21 21 20 19 18 17 17 17 16 17 16 16 14
6 4 3 2 2 1 3 2 2 3 4 4 2 5 3 5 5 5 7 6 9 9 4 2 1 3 2 3 1 2 1 1 4 4 4 5 14 22 25 27 27 27 28 28 28 28 26 24 23 24 23 21 21 23 22 21 21 22 24 24 23 22 22 22 22 23 22 22 22 22 22 22 23 23 23 23 22 22 21 21 21 20 21 20 20 20 20 19 17 16 16 16 16 16 16 15 14
5 4 4 4 3 1 3 1 2 3 5 4 2 6 4 6 5 6 8 7 9 6 1 3 1 1 2 2 2 3 2 1 2 4 6 10 20 24 25 27 26 26 27 27 28 28 26 24 23 24 23 22 21 22 23 21 21 22 22 22 22 21 21 20 21 22 22 22 21 22 23 23 23 23 23 23 22 22 21 20 20 20 21 20 20 19 18 18 17 17 16 16 16 15 15 14 12
5 3 3 4 2 1 4 2 4 4 5 5 4 6 7 8 5 7 8 7 6 3 3 2 3 3 2 2 1 5 8 2 3 6 11 18 24 24 26 26 25 26 25 26 27 27 26 23 23 24 24 22 21 22 22 21 21 21 21 21 21 21 20 19 19 19 20 21 20 21 23 23 23 23 23 23 22 22 22 21 20 20 20 19 20 19 17 18 18 17 16 16 15 15 14 12 10
4 2 1 4 2 2 4 2 4 3 4 5 5 7 10 10 7 7 6 4 4 3 1 1 4 4 1 3 1 6 13 7 8 11 17 23 25 25 26 26 25 25 24 25 26 26 25 23 23 24 24 23 22 22 21 20 20 21 21 21 20 20 19 19 19 18 18 19 19 20 22 22 22 22 22 22 22 21 21 21 20 18 16 16 18 19 18 18 18 17 17 17 16 15 14 12 9
4 2 1 3 2 1 1 3 4 3 5 6 6 9 11 10 7 6 7 5 4 3 3 4 3 4 1 5 3 4 9 10 16 17 20 24 25 25 25 25 25 24 24 24 25 25 24 24 23 24 24 23 22 21 21 19 19 20 20 19 19 20 19 19 19 18 18 18 17 19 21 20 20 20 21 21 21 20 20 19 17 15 15 15 17 18 19 18 18 18 18 17 16 15 14 12 10
4 2 2 2 2 0 4 2 3 3 4 5 7 11 10 9 7 7 7 7 6 4 4 4 4 5 5 4 2 2 4 11 19 19 20 23 24 25 24 23 25 25 24 24 25 25 24 24 23 23 23 23 22 22 21 19 18 19 19 18 18 17 18 18 19 19 18 18 18 19 20 19 19 19 19 19 20 20 18 16 14 14 14 15 16 18 19 19 19 19 18 18 16 15 13 12 11
3 3 3 4 3 1 4 4 4 4 5 5 8 10 7 7 7 6 5 6 6 5 4 3 4 5 6 4 2 3 6 11 17 20 20 22 22 23 23 23 23 25 25 24 25 25 24 22 22 22 23 23 22 22 21 19 18 19 19 18 17 17 17 17 17 17 17 17 17 19 19 19 19 19 18 18 19 18 16 14 13 13 14 14 15 18 19 19 19 19 19 17 16 14 13 12 13
3 2 4 4 2 3 4 3 5 5 7 5 6 5 3 6 7 7 4 5 5 6 4 2 5 5 5 3 2 4 8 10 15 20 20 21 21 22 23 23 22 23 24 25 25 24 23 21 21 21 23 23 22 22 21 19 19 19 19 18 17 17 17 16 16 17 16 15 15 16 17 17 17 18 18 17 16 15 14 13 13 12 13 15 15 17 18 19 19 19 18 17 16 15 13 13 13
3 2 4 3 3 3 3 2 4 5 6 4 4 5 5 7 7 8 4 3 5 6 3 4 6 4 4 3 3 4 7 10 15 19 19 21 22 22 22 22 22 22 23 25 25 24 23 21 20 21 23 23 22 22 20 19 19 19 19 18 18 17 17 17 16 16 16 16 15 14 15 15 16 16 16 15 14 13 13 12 13 12 12 13 14 16 18 19 19 18 18 16 15 14 14 13 12
3 3 4 2 1 2 2 1 3 2 4 5 3 5 6 5 5 5 2 5 2 2 2 3 6 5 3 3 4 3 6 13 17 18 19 20 21 22 22 22 21 21 22 24 24 23 23 22 21 21 23 23 22 22 20 19 19 19 19 18 18 18 17 17 16 16 16 16 16 15 15 15 15 15 15 14 13 12 13 13 13 12 11 12 14 16 18 19 18 17 16 15 14 14 15 14 12
3 2 4 2 1 1 2 2 2 1 4 4 1 5 7 4 4 4 4 4 1 3 1 4 3 3 3 6 5 5 11 17 19 20 21 21 21 21 20 21 20 20 21 22 23 23 23 22 22 21 22 23 23 22 21 20 19 19 19 18 18 17 17 16 15 15 15 16 16 16 15 15 15 14 14 13 13 13 13 13 12 11 10 12 13 15 17 18 17 16 15 14 14 14 15 14 12
3 3 4 1 2 2 2 3 2 1 4 4 3 5 9 7 3 4 3 0 2 2 2 3 3 1 3 5 7 12 19 22 23 24 23 22 21 20 19 20 19 19 20 21 22 22 23 23 23 21 21 23 23 22 21 20 19 19 19 18 17 17 16 15 14 14 15 15 16 16 15 15 15 14 14 13 13 13 13 13 11 10 9 11 13 14 15 16 16 15 15 14 13 13 15 15 13
3 4 4 0 3 3 3 4 4 3 5 6 6 7 8 9 5 2 2 4 4 3 4 2 3 1 2 7 17 23 25 25 26 26 24 22 21 20 19 19 19 19 19 20 21 22 23 23 23 23 22 23 23 22 22 21 19 19 19 18 17 16 15 13 14 14 14 15 15 15 15 15 15 15 14 13 13 12 13 12 10 9 8 9 11 13 13 14 14 14 14 14 13 13 14 15 14
3 4 2 2 3 4 4 5 5 3 5 7 9 7 6 8 7 2 3 6 4 4 4 3 4 5 7 16 26 28 27 27 27 25 21 20 21 19 18 20 21 21 21 20 21 22 24 24 24 24 24 23 24 23 22 21 20 20 19 18 17 16 15 14 14 14 15 15 15 15 14 15 15 15 14 13 13 12 12 11 10 9 8 8 9 11 12 12 12 12 13 13 13 13 14 14 14
2 4 2 4 5 4 5 5 3 2 5 9 10 6 5 8 6 2 1 2 4 4 3 4 8 8 11 17 24 27 26 26 26 25 21 20 21 20 18 19 19 20 21 22 23 24 26 26 25 25 25 25 25 23 22 21 21 21 20 19 18 16 16 16 15 15 15 15 15 14 14 13 14 13 12 12 12 12 12 11 10 9 8 9 8 9 11 11 10 11 12 12 13 13 14 14 13
2 4 2 6 5 4 4 4 5 5 6 7 10 7 7 8 4 1 2 1 2 1 3 5 9 11 11 12 18 22 23 23 24 24 21 20 20 20 20 22 23 23 25 26 26 26 26 26 26 25 25 26 25 24 23 22 22 21 21 19 18 17 17 17 16 15 15 15 14 14 14 13 13 11 11 11 11 12 12 11 11 10 9 9 8 8 9 9 9 10 11 12 12 14 14 13 12
2 3 5 5 3 3 5 5 7 6 3 4 7 8 9 8 3 1 4 4 3 5 6 4 8 14 14 12 14 17 18 19 19 20 19 18 19 21 23 26 29 30 30 29 27 27 27 27 27 26 26 27 26 25 24 23 22 21 21 19 18 18 18 17 15 15 15 15 15 14 14 13 13 12 11 11 11 12 13 12 11 10 10 9 8 8 9 9 8 9 11 12 12 14 14 13 12
2 5 6 4 1 3 6 5 7 5 1 4 7 7 7 6 4 0 4 4 5 5 6 5 7 14 15 13 14 15 16 14 14 16 17 19 21 21 22 24 27 30 32 30 30 30 30 29 28 28 28 28 27 26 24 22 21 21 21 20 19 18 18 17 15 15 14 14 15 15 15 14 13 13 11 10 10 12 13 12 11 10 9 9 8 8 9 8 8 9 11 12 13 14 14 12 11
2 6 4 4 4 4 5 5 8 4 2 5 5 4 4 5 7 3 5 6 4 3 5 11 10 14 14 12 13 14 14 12 13 16 19 20 21 22 24 25 24 26 27 26 28 29 29 30 29 30 30 29 28 27 25 23 22 22 21 20 19 18 17 16 15 15 14 15 15 15 15 14 14 13 12 10 9 10 11 11 10 9 9 9 8 8 8 8 9 10 11 11 12 13 14 12 11
4 5 3 4 5 6 7 6 8 6 3 7 4 4 5 4 6 2 5 5 2 3 7 13 12 14 14 11 12 13 13 13 16 21 23 23 25 25 24 23 22 21 20 20 23 25 28 29 29 31 31 30 29 28 26 24 24 22 21 20 18 18 17 15 15 15 15 15 14 15 15 14 13 13 11 10 9 9 10 10 10 10 9 9 8 8 7 8 8 9 9 10 10 11 12 11 10
5 6 4 3 4 6 6 6 8 9 6 5 2 5 8 6 3 1 4 3 3 6 9 12 13 13 11 10 12 12 12 14 17 19 19 20 23 20 16 18 22 22 20 21 22 22 27 28 28 30 29 30 30 28 26 25 25 23 21 20 18 18 16 14 14 15 15 14 14 14 13 12 12 12 11 10 9 9 9 9 10 10 9 8 8 7 6 6 7 8 8 8 8 9 10 10 9
6 6 4 4 5 6 5 5 8 8 5 1 1 8 8 3 3 2 4 3 6 8 10 11 14 13 10 9 11 12 12 14 15 15 16 17 18 14 13 17 21 23 21 24 24 22 25 27 26 27 27 28 29 27 27 27 26 23 21 19 18 18 14 11 12 14 15 14 15 14 12 11 11 10 9 8 8 8 8 8 9 9 8 7 6 6 6 5 6 6 7 7 7 8 9 9 9
4 5 5 6 6 6 3 5 8 6 5 3 4 9 6 0 2 3 3 6 9 10 11 11 13 13 11 9 10 10 11 14 15 15 15 16 17 16 17 19 21 21 20 23 25 22 22 25 25 25 27 27 27 27 27 27 25 23 20 18 17 15 12 12 12 14 15 15 15 13 11 10 8 7 5 5 6 6 7 8 8 8 6 6 5 4 5 4 5 5 6 6 7 8 9 9 8
3 3 5 7 5 5 3 5 7 3 4 6 6 7 5 1 3 5 5 8 10 12 13 12 13 11 11 10 8 7 8 12 15 14 12 15 21 22 22 21 20 20 20 20 22 23 22 23 25 26 26 27 28 27 26 27 24 22 20 17 15 11 12 15 15 15 16 15 14 12 10 8 6 5 4 4 5 6 6 6 7 6 5 4 4 3 4 4 4 5 5 6 7 8 9 9 9
4 2 3 8 7 6 5 4 4 2 3 4 6 4 8 2 6 6 5 9 9 12 13 12 12 11 10 9 7 6 7 10 12 11 10 12 17 21 22 21 19 19 21 19 19 24 24 23 26 26 27 28 28 27 26 25 22 20 19 16 14 12 15 18 16 15 14 14 13 10 9 7 5 5 5 4 5 6 6 6 6 5 3 3 3 3 3 3 3 4 5 6 7 8 9 10 10
4 1 1 5 7 6 6 2 2 1 3 4 6 3 7 7 8 5 5 11 10 10 11 10 10 9 9 8 7 6 7 9 10 8 8 8 8 12 17 17 17 18 22 20 20 24 26 25 27 26 27 28 27 26 26 23 20 19 18 16 14 14 18 17 14 14 12 11 10 10 8 7 6 6 5 5 6 7 7 6 6 5 4 3 3 3 3 3 3 4 5 7 8 9 10 11 10
2 2 1 3 2 5 8 4 1 2 3 4 6 2 6 10 8 3 5 10 12 11 11 10 9 8 8 8 8 8 7 8 8 8 8 9 8 9 13 15 15 17 22 23 23 24 25 26 26 27 28 28 27 26 24 22 20 20 18 17 16 17 18 15 14 14 13 10 9 9 8 6 6 6 5 5 6 7 8 7 7 6 4 4 4 4 3 3 3 4 5 6 9 10 10 11 10
2 1 3 3 1 5 9 6 0 2 5 3 5 2 5 9 7 3 5 7 10 11 11 11 10 9 9 8 9 8 6 6 8 8 8 9 11 13 14 15 16 18 22 24 24 23 23 25 25 27 28 27 26 26 24 22 20 20 18 18 18 18 17 14 14 14 12 12 10 8 7 6 7 6 6 6 6 7 8 8 7 5 4 4 5 5 4 3 3 5 6 6 9 11 12 11 11
3 1 3 3 1 3 6 5 3 1 3 4 2 2 4 6 6 4 3 7 7 8 10 11 11 10 9 9 8 8 5 5 6 8 9 10 12 15 15 15 17 20 22 25 24 23 23 24 24 26 28 27 26 26 24 22 20 20 18 18 19 18 16 14 14 13 12 12 11 8 7 7 7 7 7 6 6 7 7 7 5 5 5 5 5 6 5 4 3 6 8 7 8 11 13 13 13
3 2 1 3 3 2 2 4 5 4 3 4 4 1 5 8 6 4 4 8 7 8 10 11 11 9 8 9 8 7 6 5 6 7 9 11 12 15 17 16 18 21 22 24 24 24 25 24 23 25 27 27 26 25 22 21 19 19 19 19 18 17 15 14 13 13 13 12 10 9 8 8 7 7 7 6 6 7 7 6 6 6 5 5 6 7 6 5 5 6 9 10 10 12 14 15 14
2 1 1 3 3 3 2 3 4 6 6 5 5 2 7 11 8 4 5 8 9 10 10 10 11 9 7 9 9 7 7 6 6 7 10 12 13 14 17 16 17 21 22 22 23 24 24 25 24 24 27 27 25 24 21 19 18 19 19 19 17 16 15 15 14 14 13 11 10 9 9 9 8 7 8 7 7 7 7 7 7 7 6 5 7 7 7 7 7 8 10 12 13 13 14 16 15
6 4 3 3 4 4 4 4 5 3 5 6 5 5 6 9 9 6 6 8 10 8 7 8 9 8 6 7 8 8 9 7 6 9 11 12 13 15 16 17 17 19 22 22 21 23 23 25 25 22 25 27 24 22 20 19 18 19 19 19 18 17 16 16 15 13 12 10 9 9 9 8 8 8 8 8 8 8 8 8 8 7 6 6 7 7 8 8 8 10 11 13 15 15 15 16 15
4 2 2 4 5 6 2 3 6 1 1 7 6 5 7 8 10 9 6 8 9 6 7 9 10 10 9 8 10 10 9 6 8 10 13 13 13 15 16 16 16 17 20 21 20 22 23 24 24 20 22 25 24 22 21 20 20 20 19 20 19 18 17 16 15 13 11 10 8 9 9 8 7 8 8 8 9 9 9 9 9 8 7 7 7 7 8 9 9 10 11 14 17 19 18 16 16
1 2 3 4 5 6 3 3 7 2 3 5 3 3 8 9 10 8 4 8 10 11 11 12 13 12 10 9 10 10 7 5 8 9 11 14 14 15 17 17 17 18 20 21 20 22 23 23 23 20 20 22 22 23 23 22 21 21 20 20 20 18 16 16 15 13 11 9 8 9 9 8 8 8 8 8 8 9 10 10 9 8 7 7 8 8 9 10 10 11 14 17 18 20 19 18 19
2 1 1 4 4 4 5 4 4 1 3 4 4 4 9 10 10 8 6 10 12 14 16 16 16 14 12 12 11 9 8 7 9 9 10 14 15 16 17 16 18 19 20 21 20 22 23 22 22 21 20 20 20 21 23 24 22 21 20 19 18 17 15 14 13 12 10 9 9 9 9 9 8 7 7 7 7 8 9 9 8 7 8 8 9 10 10 11 11 12 15 18 20 20 18 19 19
2 3 2 5 3 1 4 5 4 3 1 5 6 5 7 8 8 7 6 9 9 12 16 15 15 15 14 13 12 11 10 9 10 9 9 12 15 16 16 15 16 18 19 21 21 22 22 23 23 22 22 22 21 20 22 23 21 19 18 17 16 15 14 13 12 10 10 9 9 9 8 7 7 6 6 6 7 7 7 7 6 8 9 9 10 11 11 12 13 15 16 18 22 21 19 18 15
3 5 6 5 3 3 6 4 5 6 4 4 3 4 6 5 5 7 5 4 6 7 11 11 10 11 9 9 10 10 10 10 10 11 10 10 13 16 15 15 16 17 19 21 23 22 22 23 22 21 23 24 23 21 21 21 20 19 17 15 14 13 12 12 11 10 10 9 9 8 7 6 6 6 6 6 7 7 7 7 7 8 10 11 11 11 12 12 14 16 18 20 22 23 22 17 12
4 5 9 9 7 7 8 4 4 5 5 3 2 1 5 5 4 6 5 3 4 4 9 13 11 9 8 9 10 9 8 9 9 9 10 9 12 16 15 15 16 17 19 21 22 22 21 22 22 21 23 24 24 22 21 21 21 20 19 19 17 15 14 12 12 11 11 10 9 8 7 7 7 7 7 7 7 7 7 8 8 9 10 11 12 12 12 13 15 17 18 21 22 23 24 19 15
4 5 10 11 9 8 8 3 3 1 3 4 2 3 5 6 4 6 5 2 3 4 9 12 10 9 10 10 10 9 8 9 8 8 9 10 12 14 14 16 18 17 18 20 21 20 21 22 22 22 23 24 24 23 21 21 21 20 20 21 19 17 16 14 12 11 11 10 9 9 9 8 8 8 8 7 7 6 6 8 9 9 11 12 12 13 13 14 15 17 19 21 21 21 23 20 18
3 5 7 8 8 8 7 4 4 4 3 4 3 4 3 5 4 6 4 2 3 6 10 10 10 11 11 10 9 9 9 8 8 8 9 9 11 13 14 16 18 18 18 20 19 19 21 22 22 23 24 24 23 23 22 21 21 20 19 19 18 16 15 14 12 11 11 10 10 10 9 9 9 8 8 7 7 6 6 8 9 9 10 11 12 13 13 13 15 17 18 19 19 19 20 19 18
6 5 6 7 8 8 6 6 5 3 1 5 5 2 2 5 5 4 1 3 4 9 12 12 12 12 11 10 9 8 7 7 8 8 9 10 12 14 15 16 17 17 19 19 18 18 20 21 23 23 24 24 23 23 22 20 20 20 19 18 16 15 14 13 12 12 11 10 10 10 10 10 9 9 8 7 7 7 7 7 8 9 10 10 11 11 12 13 14 16 17 17 17 16 16 16 16
5 5 4 2 3 3 4 5 4 1 2 5 7 2 2 5 5 1 1 2 5 8 10 10 10 10 10 9 8 8 7 7 7 7 8 11 14 16 16 16 17 17 19 19 18 19 21 22 23 24 24 23 23 22 21 20 19 19 19 18 16 15 14 13 13 13 12 12 11 12 11 11 10 9 9 8 7 7 7 7 8 8 9 9 10 10 11 13 14 15 16 16 16 15 15 14 14
2 4 4 4 3 3 3 2 3 3 2 7 8 6 4 4 5 2 3 3 3 5 6 8 9 10 10 9 8 8 8 7 7 7 9 11 14 16 16 16 17 17 18 19 19 20 22 22 22 23 23 22 23 22 21 19 18 18 19 18 16 15 15 15 15 14 14 13 13 13 13 12 11 10 9 8 8 7 6 6 7 8 8 9 10 10 11 12 12 13 14 14 14 13 13 13 13
2 2 3 3 2 3 4 4 3 3 4 7 6 4 5 3 5 4 5 5 3 3 6 9 11 12 11 9 8 9 8 8 8 8 9 10 11 14 16 16 17 18 19 20 20 20 21 22 22 22 22 22 23 22 21 19 19 19 19 18 17 17 17 17 17 17 16 15 14 14 12 11 11 10 9 7 6 5 4 4 4 6 8 8 9 9 10 10 10 11 13 13 12 12 11 12 13
4 3 4 2 2 2 2 3 0 2 6 5 3 2 2 5 6 5 7 7 5 5 6 7 9 10 9 8 8 7 8 9 8 8 9 9 8 10 14 16 17 19 20 20 21 21 21 22 22 23 23 23 23 22 21 20 20 21 21 20 19 20 19 19 18 18 17 16 14 13 12 11 11 10 9 7 5 4 3 2 1 4 7 7 7 8 8 9 9 10 12 11 11 10 10 11 12
5 5 4 4 2 1 1 3 0 3 6 3 3 3 2 4 4 4 7 8 7 6 7 7 7 7 7 6 6 6 7 8 8 7 9 9 8 9 13 15 17 19 20 21 21 22 22 22 22 23 23 22 23 22 21 21 21 21 22 21 21 21 21 20 19 18 17 16 14 12 12 11 11 10 9 7 5 4 3 2 1 4 8 8 7 8 7 8 9 10 10 9 9 9 9 10 11
5 5 5 5 4 4 3 3 3 4 4 2 1 2 2 2 3 4 6 7 7 6 7 6 5 6 7 7 8 7 7 8 7 7 8 8 8 11 13 15 16 18 19 20 21 22 22 22 23 24 24 23 22 22 21 21 21 22 23 23 22 22 21 20 19 18 17 16 13 12 11 10 9 9 8 6 5 4 3 3 3 5 8 8 7 7 6 7 9 9 9 8 9 9 9 10 10
3 3 4 2 5 5 2 3 5 3 1 1 1 2 2 3 3 5 4 4 8 7 3 5 6 7 8 8 8 9 8 8 7 6 7 7 9 12 14 15 16 17 19 20 21 22 22 23 24 24 24 23 22 21 21 21 21 22 23 23 22 21 20 19 19 18 17 15 13 11 10 10 9 8 7 7 6 5 4 3 3 4 6 6 6 5 5 6 7 8 9 8 9 9 9 8 8
1 3 3 4 4 7 4 2 0 3 1 3 1 2 5 2 2 5 5 5 7 9 5 3 5 6 8 7 7 8 7 7 7 6 6 7 9 12 14 15 15 17 19 20 21 23 24 24 25 24 23 23 22 21 21 21 22 22 22 22 22 21 20 18 18 18 18 16 13 12 11 9 8 7 7 8 7 6 4 3 2 2 3 4 4 3 3 5 6 6 8 8 8 8 7 7 7
4 3 5 3 2 4 3 2 2 3 2 4 1 1 4 1 1 4 5 5 5 7 6 4 3 3 5 4 4 5 4 3 5 6 7 7 9 12 14 15 16 17 19 21 22 24 24 24 24 24 23 23 22 21 21 22 22 22 22 22 22 21 19 17 17 18 18 17 15 13 11 9 8 7 8 8 8 7 4 2 2 2 2 4 4 4 3 4 5 6 7 7 6 6 6 6 6
3 4 4 4 2 1 1 2 1 1 2 3 3 2 2 3 3 2 4 4 5 5 6 5 4 4 3 2 3 4 3 4 5 7 7 6 9 13 16 16 17 19 20 21 23 22 21 19 18 18 18 19 19 20 21 22 22 21 22 22 22 20 18 17 17 18 18 17 15 13 11 9 8 7 8 8 8 6 4 2 3 3 3 4 5 4 3 4 5 6 6 6 5 6 6 7 7
2 2 2 2 2 4 2 2 3 3 3 2 2 3 2 4 4 2 1 3 2 3 5 5 6 6 6 3 2 3 2 4 6 8 7 6 10 16 20 20 20 21 22 22 21 20 17 15 14 14 14 15 16 18 20 22 23 22 22 21 20 19 17 17 17 17 17 16 15 13 12 10 9 8 8 8 7 6 3 2 4 5 4 4 4 3 3 3 4 4 5 5 5 5 6 7 8
1 2 2 1 1 2 2 1 1 3 3 3 1 2 4 4 2 3 4 3 1 3 4 5 6 7 7 6 4 4 3 3 0 5 7 4 6 15 21 19 17 18 18 17 16 16 17 17 17 17 18 18 19 20 21 22 23 23 22 21 20 18 17 16 16 15 15 15 14 13 12 10 9 8 8 8 7 5 4 4 6 6 5 5 4 4 4 4 4 4 4 5 5 6 7 8 9
3 4 4 3 2 3 2 1 2 2 3 3 4 2 6 4 1 3 3 2 1 4 6 6 7 8 8 7 7 7 6 6 4 6 11 8 10 19 21 18 16 13 11 13 15 19 21 21 22 23 23 23 23 23 22 23 24 24 23 22 20 19 18 17 16 15 14 14 13 13 12 10 9 8 8 8 7 6 5 5 6 6 6 5 4 4 5 5 5 5 4 5 6 8 9 10 10
Wind_Direction
106 94 70 43 11 148 58 62 92 327 78 274 271 202 258 234 236 292 297 315 290 277 253 309 300 158 145 190 169 147 115 162 156 144 209 278 130 140 145 149 148 146 146 150 154 153 151 149 149 149 147 142 138 132 128 125 122 123 123 125 126 128 128 127 128 127 127 128 127 127 126 126 126 126 125 122 121 122 124 123 121 121 121 120 121 121 120 120 118 116 116 115 112 111 111 112 113
105 95 70 57 42 119 181 72 99 336 50 293 269 179 253 249 209 246 239 262 230 269 291 293 309 117 83 75 120 106 50 19 125 138 13 118 128 132 142 149 148 146 147 151 155 154 150 149 149 151 150 145 141 135 130 126 122 122 123 124 125 127 129 129 128 129 129 129 129 128 128 128 128 129 129 127 124 123 125 124 122 122 123 123 122 122 121 120 119 118 118 116 114 113 113 113 116
108 97 66 102 57 50 93 49 90 81 92 252 270 224 235 180 223 199 207 236 246 280 296 291 303 97 5 40 45 77 56 27 89 60 94 125 127 131 144 149 148 147 148 150 154 154 150 149 151 153 152 147 143 138 131 126 124 125 124 124 127 127 128 129 128 129 130 130 129 129 130 129 130 131 133 130 126 125 125 125 124 124 125 125 124 124 123 123 121 119 119 118 117 116 114 115 116
109 92 45 131 77 28 69 48 126 126 166 232 272 258 223 212 255 272 238 250 277 286 267 295 346 318 19 71 23 65 69 52 83 74 116 130 138 141 145 147 146 146 147 151 154 153 150 150 152 154 154 150 145 140 133 127 126 127 127 129 131 130 130 130 131 130 129 132 131 132 133 130 129 130 130 128 127 127 127 127 126 126 127 125 125 127 126 124 123 121 120 119 119 117 115 117 118
105 90 44 82 99 52 99 76 120 136 211 197 244 261 229 229 256 274 272 282 288 284 232 150 5 305 60 79 52 84 36 99 92 99 103 114 142 144 146 146 145 145 148 152 154 153 150 151 153 156 157 153 147 141 134 130 129 129 131 132 134 133 131 132 135 133 131 134 133 135 137 134 131 129 129 130 131 130 130 130 128 126 126 126 127 130 130 127 126 124 123 123 121 118 118 121 123
108 100 56 62 97 153 115 114 177 219 228 169 228 264 243 241 258 280 294 295 281 286 239 125 114 291 64 5 55 82 355 167 116 115 122 131 145 147 148 148 145 146 149 152 154 153 152 153 155 157 158 155 148 141 135 131 133 133 133 134 134 134 132 134 137 135 134 134 135 140 142 139 136 135 136 135 134 134 135 133 131 128 125 127 129 131 131 130 130 127 126 125 123 119 118 120 125
123 111 40 64 49 26 111 177 210 238 250 181 219 272 273 270 277 293 310 310 294 331 22 82 123 103 68 325 79 34 22 110 145 132 144 142 146 148 149 147 143 145 148 152 153 154 154 155 156 158 158 155 150 142 136 133 136 137 136 137 136 135 135 137 138 136 135 134 140 144 144 142 140 141 141 140 139 140 141 138 136 133 126 125 130 134 133 135 135 129 128 127 124 120 118 119 122
113 106 23 91 46 18 103 233 241 218 253 229 236 264 273 280 286 291 293 287 296 319 343 108 92 89 18 7 45 10 29 76 126 135 146 142 145 146 147 146 142 144 148 151 153 154 153 155 156 157 157 153 149 142 136 135 140 140 140 142 139 138 139 141 140 137 137 138 143 145 144 145 144 143 143 143 143 144 145 145 142 138 130 124 130 137 138 138 138 132 130 129 125 122 118 118 120
75 54 102 91 110 32 27 270 265 231 248 263 269 267 271 280 280 275 269 258 256 260 194 155 79 102 114 37 52 354 31 90 121 130 140 141 145 145 145 145 143 145 149 152 152 152 152 155 156 156 155 152 148 141 136 137 144 144 143 144 140 140 142 144 143 141 142 142 145 147 147 147 146 145 144 145 146 147 148 150 147 142 135 127 129 137 141 139 137 134 131 129 125 121 115 115 116
42 33 131 76 111 331 311 264 251 250 250 261 270 272 273 279 276 258 258 259 238 213 180 129 70 104 119 73 57 6 59 115 122 125 136 141 144 144 143 143 145 146 149 153 152 153 153 154 156 155 154 152 149 142 139 140 145 146 145 144 141 141 142 145 146 146 148 148 150 152 152 150 148 147 148 148 149 150 151 151 149 142 135 129 129 136 143 141 139 136 132 129 125 120 114 113 114
37 352 103 75 82 202 260 254 265 274 285 284 280 275 263 272 284 271 243 244 235 185 181 113 91 116 107 95 69 86 116 122 122 125 136 140 140 140 139 140 144 146 150 153 153 153 152 153 155 155 154 152 148 143 143 144 145 146 145 143 141 141 141 143 144 146 149 151 153 154 156 154 151 150 149 150 151 153 153 150 146 141 135 129 128 133 141 144 141 136 131 129 126 121 114 111 113
79 342 63 93 144 202 215 248 278 294 300 285 284 295 297 296 313 311 272 217 208 151 176 160 148 143 104 103 105 111 107 110 120 125 136 137 137 137 136 140 144 147 151 153 154 152 150 152 154 154 154 152 148 146 147 145 145 147 145 144 143 144 142 141 142 143 145 148 152 154 157 157 155 153 152 152 153 153 151 145 141 139 133 127 127 131 137 142 140 136 133 131 128 124 117 112 113
119 146 85 120 187 193 191 229 277 311 308 260 255 294 326 327 333 315 290 178 153 140 184 175 151 121 97 120 119 118 101 111 120 123 133 133 135 135 134 139 142 146 149 152 153 152 151 152 154 155 155 152 150 150 151 148 148 150 148 147 147 146 144 143 143 144 145 145 148 152 154 156 157 156 155 153 152 149 144 138 136 134 130 125 125 131 137 142 141 138 136 133 129 124 120 117 115
143 150 112 149 210 183 185 232 289 324 282 257 256 302 331 338 324 320 48 81 85 173 207 142 128 95 99 135 134 148 119 122 122 121 127 128 131 132 133 137 140 146 149 153 154 155 154 153 155 156 157 153 152 154 155 153 152 153 151 151 152 149 146 147 147 148 148 145 144 146 147 150 152 153 153 151 149 145 139 136 134 133 132 125 122 129 138 144 143 140 137 134 130 124 122 120 119
150 132 96 122 254 270 212 207 219 164 260 269 263 316 341 337 324 17 66 81 309 280 120 98 80 86 155 173 163 154 129 125 122 121 121 122 125 125 131 135 138 145 150 154 155 158 156 154 156 158 162 157 156 159 159 158 156 155 153 154 154 150 147 149 150 151 151 146 145 145 144 144 144 145 146 144 144 141 136 135 134 136 136 127 121 126 136 144 145 142 139 135 131 125 123 121 120
132 105 76 100 233 232 219 197 180 217 265 264 259 338 354 334 360 51 341 103 156 316 41 80 359 57 177 179 138 127 127 124 120 118 114 115 117 119 127 132 138 145 150 154 156 159 157 156 157 161 166 161 161 163 161 161 159 156 154 156 156 150 150 150 151 153 155 152 150 148 145 144 142 141 141 140 140 140 137 134 135 140 137 126 121 124 132 144 148 146 143 139 133 128 124 122 119
75 79 76 323 221 194 207 195 177 213 270 284 308 3 3 324 343 88 355 44 102 33 33 58 341 359 157 135 123 124 125 122 117 112 108 111 113 115 122 131 139 145 150 155 157 160 161 161 163 165 167 166 167 166 164 164 161 159 156 158 157 152 153 153 152 154 158 157 156 155 151 148 145 144 142 140 140 139 137 136 138 140 135 125 120 123 130 140 147 147 145 141 136 132 127 122 120
61 85 114 223 202 191 189 189 194 216 301 305 317 1 8 319 326 334 41 26 25 47 34 52 44 53 99 117 121 124 124 120 117 110 109 116 118 123 134 144 147 148 151 155 159 165 168 168 169 169 169 171 171 168 167 165 162 161 159 159 157 155 155 155 156 157 159 160 161 163 159 153 149 148 146 142 140 137 136 137 139 139 133 124 118 120 126 132 142 146 145 141 137 135 130 124 122
100 107 164 230 197 210 194 192 232 266 290 302 313 342 2 313 307 322 103 339 344 51 41 88 94 93 106 118 121 124 124 121 121 121 127 137 139 144 147 148 147 148 153 159 166 171 173 172 172 172 172 174 173 170 169 166 166 164 161 160 158 157 156 157 158 159 160 162 166 168 166 160 155 150 145 140 137 135 133 134 135 134 128 121 118 118 122 128 136 144 146 141 137 135 131 126 124
167 124 212 242 203 227 232 228 250 254 276 307 310 325 347 311 290 303 156 166 311 199 184 137 133 135 125 124 124 125 127 125 129 133 140 148 150 153 152 149 153 160 164 168 173 173 173 172 173 174 174 175 175 171 169 168 168 166 161 160 159 158 157 159 161 161 161 162 165 168 169 165 157 149 142 140 139 137 134 135 135 132 129 124 123 120 122 127 134 141 142 141 138 134 130 127 126
180 161 209 232 179 234 265 255 254 257 269 283 298 323 328 308 314 77 141 149 259 237 208 183 156 150 137 133 131 128 130 130 132 133 138 145 154 164 164 162 166 170 169 171 174 173 174 174 174 176 176 177 176 173 171 170 169 165 162 160 160 160 160 160 163 165 161 162 163 165 168 162 158 153 150 152 148 144 141 142 140 135 132 127 127 127 126 129 135 136 137 140 138 133 130 128 127
164 242 232 234 213 271 274 264 266 261 264 292 302 319 307 311 337 91 152 185 247 243 193 149 147 151 141 139 136 132 137 134 126 128 143 156 165 172 172 170 172 172 171 173 173 173 177 177 175 176 178 178 177 175 172 171 169 165 164 163 162 163 163 162 166 167 161 162 163 165 166 162 163 161 159 162 154 147 145 143 138 134 134 130 130 132 129 127 130 130 132 137 136 134 132 129 128
206 268 263 250 240 252 267 266 282 290 25 299 289 299 304 333 315 248 193 230 277 301 145 125 137 146 136 135 134 135 139 129 127 145 162 169 172 178 177 171 173 174 173 174 172 172 177 178 176 176 178 177 176 176 173 170 169 167 167 166 166 166 164 164 166 166 162 164 165 167 168 165 166 163 163 166 158 147 142 139 135 134 135 132 129 130 128 123 121 122 127 131 131 133 132 131 130
215 264 300 268 233 224 249 259 283 296 264 262 274 326 305 279 291 263 211 242 340 39 115 121 134 138 132 133 131 135 134 131 151 166 172 176 180 186 181 169 169 174 173 173 171 170 176 179 177 176 177 175 175 175 174 171 169 169 170 169 169 166 165 165 165 165 164 165 169 172 172 171 168 165 165 166 160 150 143 140 136 136 136 133 133 131 126 121 116 114 119 123 122 128 133 137 137
224 245 282 271 245 235 256 270 280 285 261 245 265 291 274 230 220 280 249 240 108 111 117 126 134 134 137 139 135 136 136 147 167 173 172 178 183 187 182 168 168 174 176 175 174 171 176 182 178 176 176 175 175 174 174 171 170 171 170 170 167 163 161 163 166 168 166 168 176 178 176 175 171 168 166 164 159 155 152 147 141 141 141 140 139 133 123 118 114 110 111 115 114 120 133 143 147
227 221 250 258 273 274 279 279 271 280 272 199 266 275 280 239 193 268 257 165 130 123 121 136 139 139 143 140 145 145 148 165 176 174 170 174 176 180 182 175 172 177 177 174 178 175 174 180 179 178 178 177 175 174 174 171 170 171 169 170 169 163 161 166 174 175 173 176 180 179 179 178 174 168 164 165 166 165 162 152 144 143 145 142 134 127 120 114 113 111 108 109 111 117 130 144 154
212 207 254 252 270 284 271 270 270 288 283 237 246 268 285 358 184 271 245 143 132 121 127 146 142 149 152 146 155 156 163 178 180 172 163 164 171 178 183 182 179 179 175 172 180 179 172 176 178 180 180 179 178 176 175 172 171 169 166 171 173 169 170 178 188 186 181 182 181 180 181 179 175 170 169 175 180 182 173 158 150 150 153 145 130 122 120 117 119 118 110 106 111 119 129 141 155
242 247 291 279 291 293 243 256 269 281 281 229 198 260 303 57 197 238 202 148 138 132 140 151 145 154 160 156 162 165 179 183 184 181 171 170 175 179 182 183 182 179 175 169 176 183 180 176 178 184 184 182 182 179 176 172 170 168 169 175 178 176 177 182 194 198 189 183 183 183 180 176 176 187 194 191 196 200 189 172 164 162 164 157 146 134 128 130 130 126 117 110 115 127 135 143 156
286 278 300 297 335 325 264 252 262 185 250 211 150 291 316 264 225 244 181 146 137 136 146 155 150 156 160 164 169 175 187 185 192 196 193 187 180 179 178 179 179 178 180 174 174 183 186 183 182 186 187 185 185 181 177 173 172 173 175 182 186 185 183 187 197 203 195 183 183 188 184 177 186 211 211 206 214 214 209 195 183 178 185 183 171 158 143 140 135 132 125 118 126 139 147 150 156
295 311 152 314 351 326 288 294 346 48 233 187 146 279 294 265 262 271 175 146 136 138 153 159 156 159 161 166 174 183 192 192 200 198 197 200 185 178 174 174 175 173 179 181 180 184 186 187 185 186 186 186 186 184 179 178 181 181 181 187 192 189 185 190 198 201 200 190 187 193 192 187 200 218 216 216 221 220 222 215 212 216 226 224 192 177 157 146 142 141 134 129 136 151 160 159 164
317 299 270 355 5 286 304 309 6 347 269 148 135 226 267 275 291 273 189 155 146 152 161 165 164 169 167 169 174 187 196 195 199 189 188 194 180 171 169 174 176 171 175 182 185 187 188 187 185 185 185 185 187 186 181 183 188 185 185 190 192 190 187 191 196 195 197 201 204 200 193 195 206 215 214 218 221 220 225 227 229 224 223 221 196 179 166 154 150 154 152 143 144 159 168 166 175
14 302 292 343 177 265 312 310 174 272 286 67 107 216 268 276 292 264 199 166 157 158 164 171 173 173 173 175 178 188 191 182 188 181 177 179 174 172 169 173 180 176 177 184 186 186 188 188 185 185 185 186 188 185 185 192 195 189 189 192 190 189 188 190 195 197 199 209 218 209 197 200 206 210 211 216 221 219 227 234 226 202 193 204 193 178 170 164 164 162 158 159 156 162 170 171 172
356 63 259 291 257 276 321 317 323 278 273 10 53 228 281 279 296 308 203 176 174 167 169 176 178 177 175 179 183 188 179 165 183 180 166 165 170 176 173 172 181 185 184 186 186 184 186 188 186 186 186 188 188 186 191 198 199 193 193 193 189 188 188 191 194 199 206 215 221 213 205 208 208 208 208 216 220 214 223 225 205 181 181 193 191 181 176 171 176 171 160 166 170 165 172 172 161
319 18 232 264 256 249 305 296 318 19 53 2 355 202 254 271 299 332 210 185 178 182 183 181 183 183 179 180 185 187 179 177 188 177 164 164 169 177 177 174 180 187 188 187 187 187 187 188 188 189 188 188 188 191 195 199 198 194 192 191 188 186 188 192 196 202 209 216 220 219 217 213 211 209 208 216 215 207 212 205 186 185 186 184 185 182 180 165 163 179 166 164 173 170 172 171 158
211 242 194 284 286 234 225 253 296 13 27 351 342 300 257 272 290 288 224 192 186 197 190 184 188 186 182 183 186 186 185 190 180 166 170 172 171 175 176 175 179 185 187 187 187 186 186 188 191 191 189 188 189 192 194 194 193 190 188 188 188 189 192 195 199 204 209 216 222 223 221 215 212 211 208 214 212 205 205 198 187 189 189 181 182 180 178 167 161 177 174 163 164 166 169 167 157
164 177 165 213 283 261 212 228 271 2 7 320 293 269 259 275 285 271 235 202 197 199 181 184 191 190 190 183 187 192 194 190 156 159 176 177 173 174 174 175 180 185 187 187 187 186 184 188 192 189 187 187 185 187 188 187 187 186 186 187 189 192 196 200 202 206 212 219 223 219 214 212 211 209 208 213 215 207 201 201 193 188 188 185 186 184 177 172 167 173 174 162 155 155 159 162 158
142 162 205 224 255 271 223 224 263 237 355 286 259 255 267 272 276 263 228 199 196 186 181 193 192 193 197 186 188 193 195 177 140 158 175 174 173 174 174 175 178 183 187 187 185 187 187 189 192 185 182 185 185 184 185 184 184 182 183 187 191 194 198 202 203 208 214 214 211 207 204 205 205 206 209 215 220 213 205 203 196 189 190 186 190 192 181 174 170 170 166 156 151 150 151 156 156
158 221 277 276 246 262 274 237 259 213 165 262 277 322 286 269 269 262 199 175 197 193 188 198 198 199 198 190 189 187 181 150 144 162 170 169 170 170 173 174 175 178 185 186 182 185 190 192 191 183 178 183 188 190 190 189 188 186 184 187 191 193 197 200 203 207 208 201 197 198 198 199 202 208 212 216 218 215 210 203 192 192 194 185 186 193 185 174 171 173 164 152 148 150 151 154 153
169 161 250 274 257 284 302 281 278 125 142 260 299 315 283 273 273 262 194 181 202 198 191 196 197 198 197 192 191 183 170 157 164 170 165 168 167 166 171 173 173 176 182 185 181 181 187 189 188 183 179 183 187 190 190 190 190 189 188 187 188 189 191 195 200 202 197 192 194 196 201 202 202 208 212 213 212 212 215 205 189 194 199 189 187 189 185 179 175 177 171 159 149 148 151 155 157
169 167 200 259 269 6 291 293 318 322 234 252 279 301 280 280 290 278 226 202 214 206 197 200 198 197 197 192 189 183 173 165 170 172 167 168 164 164 169 171 173 174 177 181 181 182 182 183 185 185 186 188 187 184 184 185 185 187 188 186 186 186 187 189 190 191 189 192 193 195 206 208 201 204 205 207 211 210 210 203 194 199 201 194 190 189 186 183 180 179 176 169 158 149 149 156 168
244 207 212 246 250 206 234 274 327 323 310 235 243 321 297 286 297 293 293 246 238 219 200 204 210 205 194 183 188 189 179 172 171 173 173 168 162 162 166 171 173 172 175 180 182 182 180 181 184 185 185 185 184 180 180 181 180 179 177 173 174 176 177 182 183 183 186 190 193 196 205 204 198 201 201 201 207 206 198 193 196 201 200 193 188 190 187 181 181 183 179 176 169 160 157 158 173
296 235 215 225 224 222 240 272 11 359 334 267 185 352 295 302 294 283 309 277 234 212 195 202 205 197 184 184 190 188 181 179 175 172 173 167 160 159 163 172 174 173 178 182 184 183 180 181 183 182 180 181 183 181 179 180 178 176 171 166 167 168 170 178 184 182 184 186 187 191 192 189 189 189 193 196 196 199 195 189 192 197 197 191 185 186 186 180 181 185 184 181 178 171 167 163 166
303 244 206 212 213 223 241 231 91 133 262 282 76 122 268 305 306 282 301 259 202 195 201 204 198 191 193 195 189 181 178 179 173 163 162 160 159 158 160 172 178 177 178 181 183 184 184 185 185 180 177 179 181 180 179 181 179 176 174 173 173 173 172 177 182 181 181 181 177 179 177 173 176 177 181 187 185 188 190 187 189 193 192 189 185 185 186 183 182 187 188 186 185 180 176 171 167
257 238 181 185 200 218 222 167 162 226 258 314 21 118 237 291 282 276 284 182 184 200 205 206 199 197 198 196 187 180 180 177 172 163 155 154 161 164 164 173 180 178 177 178 179 183 186 188 186 181 178 178 179 179 180 182 180 177 176 177 176 179 179 176 177 178 177 175 171 169 165 163 166 168 171 173 171 174 180 183 185 188 192 192 189 188 189 188 187 189 191 191 194 191 187 183 179
243 223 170 172 184 197 187 158 192 245 2 308 306 128 202 274 280 297 336 156 199 211 209 208 203 201 198 193 183 175 176 175 173 166 154 152 162 170 169 173 178 176 176 177 176 180 185 187 185 181 179 179 179 181 182 182 183 179 177 178 179 181 183 176 173 175 172 170 166 161 159 158 159 159 159 157 154 157 161 169 179 187 196 199 196 193 192 193 192 193 193 193 197 197 197 199 196
231 175 147 119 125 147 143 151 174 81 74 253 262 202 189 273 286 326 74 203 216 215 216 213 207 203 197 189 177 169 168 171 171 163 156 159 167 171 169 170 173 173 174 175 176 181 185 185 183 180 180 181 181 182 182 181 183 182 179 182 182 182 182 178 174 173 170 165 160 155 152 150 149 148 148 146 145 146 150 159 170 181 192 198 200 195 191 194 196 197 197 196 198 201 203 209 211
171 111 95 53 40 57 71 109 106 87 265 250 238 206 184 268 284 228 201 233 218 208 219 213 206 202 196 185 172 169 169 170 169 158 156 163 167 166 165 168 169 167 170 173 178 184 186 185 182 178 179 181 181 181 182 181 183 184 183 184 185 183 182 179 176 174 170 163 156 151 148 145 143 143 142 141 140 139 142 151 164 175 182 189 194 193 189 191 194 195 196 196 199 203 206 209 212
126 90 86 63 317 21 38 355 54 111 253 261 239 198 161 218 263 245 246 269 266 230 226 217 208 202 194 181 169 170 170 171 171 163 161 164 162 161 162 165 164 162 167 174 180 185 187 186 183 180 180 181 182 182 183 184 184 185 188 186 184 182 181 179 177 175 170 164 158 154 153 151 149 149 147 143 142 139 134 139 158 175 179 180 185 187 187 190 192 192 193 196 199 203 208 208 207
136 132 97 89 303 9 30 293 32 190 252 252 209 164 158 230 247 250 269 286 284 259 249 239 224 209 193 176 166 170 170 175 178 168 164 170 165 159 159 161 162 163 167 174 180 185 187 187 185 182 181 182 184 185 186 187 186 188 190 187 181 179 180 180 178 177 172 168 165 163 165 165 163 161 157 157 159 155 153 151 162 179 175 167 168 176 184 189 193 192 192 197 202 204 206 205 205
151 157 146 143 154 78 252 266 290 252 267 260 195 184 243 269 258 247 268 286 284 265 259 255 235 202 180 159 155 170 176 179 184 172 169 178 170 155 157 159 164 168 170 173 180 186 187 186 184 182 181 183 186 188 189 190 190 192 192 188 182 181 182 183 181 179 175 173 172 172 174 174 173 171 169 171 172 160 159 167 164 174 171 162 161 171 180 190 195 194 194 199 202 202 200 198 201
168 165 142 149 164 159 205 222 196 241 272 309 248 184 186 220 247 254 263 289 306 285 246 229 202 165 150 144 152 171 184 182 187 180 171 174 163 153 156 161 167 170 169 172 179 186 188 186 184 183 181 182 186 188 190 192 192 194 193 189 185 185 185 186 185 182 179 178 177 177 176 173 175 177 176 177 172 157 152 154 140 152 163 164 167 175 184 197 202 201 201 205 204 202 200 198 199
209 146 110 171 190 155 152 192 175 184 260 327 244 211 220 218 265 292 297 332 346 338 266 175 153 142 142 150 162 172 184 185 184 178 166 162 158 156 158 163 166 168 170 175 180 184 188 187 185 185 182 180 182 185 188 192 193 191 190 188 188 190 189 189 190 187 184 180 179 178 173 169 172 176 177 173 164 154 150 151 143 148 163 171 174 181 194 204 204 203 203 205 204 202 202 203 204
195 131 169 221 176 127 119 202 98 82 156 273 251 257 303 320 298 316 351 15 9 360 356 110 133 145 150 158 168 169 178 182 175 164 153 151 155 156 157 159 162 166 172 178 183 186 189 188 185 183 180 177 179 182 185 189 190 188 188 190 191 192 192 192 191 189 185 181 181 180 174 171 171 169 170 167 164 160 157 165 175 179 192 195 189 185 195 199 193 193 197 198 202 204 203 203 204
126 184 207 193 97 90 112 168 8 43 212 273 322 235 295 333 236 310 3 15 7 10 6 18 61 120 138 138 143 139 134 149 154 146 145 154 160 154 150 153 161 169 176 182 187 191 191 189 185 180 176 174 176 180 183 188 190 189 189 191 192 192 193 192 188 184 183 182 183 184 180 175 169 167 168 168 169 169 169 185 189 180 188 185 181 178 179 184 181 182 189 193 199 204 198 192 193
140 188 173 120 137 229 81 153 177 123 219 284 321 289 252 199 223 314 22 1 346 13 18 18 30 39 47 73 127 128 127 156 158 147 147 158 154 145 143 149 160 171 181 185 187 190 189 184 178 173 170 171 174 179 184 189 191 190 190 189 190 192 192 189 183 181 182 183 185 186 185 180 172 171 175 176 178 178 183 202 180 162 154 160 165 172 175 177 181 183 183 181 185 188 187 185 184
23 119 121 77 143 171 168 156 166 172 183 244 309 329 276 222 222 253 284 301 340 30 28 31 40 37 30 34 112 145 171 192 178 156 147 159 159 151 149 151 161 176 184 186 185 181 173 162 155 156 160 166 172 177 182 187 189 190 190 189 190 193 192 188 184 181 182 185 187 188 186 183 176 175 180 183 185 185 185 180 164 157 142 137 146 152 153 158 162 163 163 165 170 175 181 181 175
99 142 194 262 79 139 171 97 90 130 151 178 196 292 271 247 225 239 246 253 168 108 71 52 50 47 38 26 36 59 46 16 91 128 116 136 140 127 131 142 161 179 182 176 170 156 143 142 149 158 164 168 172 177 180 184 187 190 190 190 192 193 190 188 186 184 185 185 187 187 185 181 175 176 184 186 185 183 171 156 156 158 147 130 128 128 124 131 142 146 149 151 157 162 163 162 163
174 168 181 185 144 128 147 270 311 92 125 164 160 218 268 264 262 266 252 243 193 125 103 80 62 63 63 49 40 51 56 40 30 83 96 94 88 100 121 148 168 174 166 154 149 143 145 154 164 169 170 172 173 175 176 180 184 187 189 190 192 190 187 188 188 188 186 183 184 184 182 179 176 178 184 185 183 177 162 152 153 158 159 148 139 141 140 144 153 157 150 141 152 161 156 151 155
Height
771 772 772 773 773 773 775 776 788 795 797 804 801 798 786 776 776 772 771 767 765 760 755 755 753 753 755 756 753 754 758 760 764 775 777 761 755 758 757 760 762 764 767 769 773 776 778 781 782 785 787 789 791 792 793 794 795 796 798 799 800 802 803 804 805 806 806 807 808 809 810 810 811 812 813 814 815 816 817 818 818 819 820 821 821 822 823 824 824 825 825 826 826 826 827 827 828
771 772 771 773 772 774 779 779 794 804 802 804 798 794 781 775 778 773 772 768 763 757 752 754 753 753 753 752 750 754 758 758 757 760 761 757 759 760 760 761 763 765 767 770 773 776 779 781 783 786 788 791 792 793 794 795 796 798 799 800 802 803 804 805 806 807 808 809 809 810 811 812 813 813 814 815 816 817 818 818 819 820 821 822 822 823 824 825 825 826 826 826 827 827 828 828 829
771 772 771 772 773 774 780 783 796 808 805 801 792 787 779 775 774 771 770 764 759 755 753 753 753 753 753 754 754 757 760 757 756 758 759 759 760 761 762 763 765 767 768 771 773 776 779 781 784 786 789 791 793 794 795 797 798 799 800 801 803 804 806 806 808 808 809 810 810 811 812 813 814 814 815 816 817 818 819 819 820 821 822 822 823 824 825 826 826 827 827 827 828 828 828 829 830
771 771 772 772 775 778 783 789 798 804 802 800 788 778 778 773 770 769 765 761 758 755 755 755 755 753 752 757 756 758 761 758 757 757 759 760 761 762 763 765 767 769 770 772 774 777 779 782 785 788 790 792 794 795 796 798 799 800 801 803 804 805 807 808 809 809 810 811 812 812 813 814 814 815 816 817 818 819 820 820 821 822 822 823 824 825 826 827 827 828 828 828 829 829 829 830 831
771 771 772 771 777 781 786 796 803 802 794 794 783 772 776 771 768 768 763 761 757 754 755 755 758 753 751 756 756 760 762 759 757 756 759 760 761 763 764 767 769 771 772 774 776 778 781 784 786 789 791 793 795 796 797 799 800 802 803 804 805 807 808 809 809 810 811 812 813 813 814 814 815 816 817 818 819 819 820 821 822 822 823 824 825 826 827 827 828 828 829 830 830 830 830 831 832
771 771 772 771 777 780 788 799 802 799 787 787 782 772 773 769 768 766 762 760 754 753 752 754 758 755 757 757 755 759 760 759 758 757 758 761 762 764 766 768 770 772 774 775 777 779 782 785 787 790 792 794 795 797 798 800 802 803 804 805 806 808 809 810 810 811 812 813 814 814 814 815 815 816 817 818 819 820 821 822 823 823 824 825 826 827 827 828 828 829 830 830 831 831 831 832 832
770 772 774 775 781 783 793 800 796 797 786 783 781 772 770 766 766 765 764 762 755 753 752 754 754 757 763 759 757 758 756 757 756 758 759 760 763 764 767 769 771 774 776 778 779 781 783 786 788 791 793 794 796 797 799 801 803 804 805 807 808 809 810 811 811 812 813 814 814 815 815 816 816 817 818 819 819 820 821 822 823 823 824 825 826 827 828 828 829 829 830 831 832 832 832 833 833
770 774 778 780 788 791 797 800 796 797 787 779 778 771 767 764 764 765 766 764 759 755 754 754 752 759 765 760 763 760 756 757 756 758 760 761 764 765 768 770 772 775 778 780 781 784 786 788 790 792 793 795 797 798 800 802 803 804 806 807 808 809 810 812 812 813 814 815 815 815 816 817 818 818 819 820 820 821 822 823 823 824 825 825 826 827 828 829 829 830 831 832 833 833 834 834 834
770 774 780 783 791 796 798 799 795 792 785 778 775 769 765 763 763 764 763 762 759 755 755 754 752 761 766 763 766 761 758 760 758 760 761 763 765 767 769 771 773 776 779 781 783 785 787 790 791 793 794 796 797 799 801 802 804 805 806 808 809 810 811 812 813 814 815 816 816 816 817 818 819 819 820 821 821 822 823 823 824 825 825 826 826 827 828 829 830 831 832 833 833 834 834 835 835
772 775 780 786 793 797 797 796 792 787 782 778 773 765 763 761 760 760 761 760 756 755 755 753 754 761 765 768 768 763 763 762 760 762 763 765 766 768 771 773 775 777 780 783 785 787 789 791 792 794 795 797 798 800 802 803 804 806 807 808 810 811 812 813 814 815 816 817 817 818 818 819 820 820 821 821 822 823 823 824 825 825 826 826 827 827 828 829 831 831 832 833 834 835 835 836 836
776 779 780 789 796 798 796 792 788 784 781 777 769 760 760 758 757 758 758 757 753 754 755 753 759 763 765 769 769 766 764 764 762 763 765 767 768 770 773 775 778 779 782 784 787 789 790 792 794 795 796 798 799 801 802 804 805 806 808 809 810 811 812 813 814 815 816 817 818 819 819 820 821 821 822 823 823 824 824 825 825 826 826 827 827 828 829 830 831 832 833 833 834 835 836 836 837
779 783 783 790 797 796 794 793 788 785 780 775 766 757 757 755 755 757 756 755 752 755 755 753 757 760 767 771 769 766 765 766 765 765 767 768 771 773 775 777 780 782 783 786 788 790 792 793 795 796 797 799 800 802 803 804 806 807 809 810 811 811 812 813 814 816 817 818 819 819 820 821 822 822 823 824 824 825 825 826 826 827 827 827 828 829 830 831 832 833 833 833 834 835 836 837 838
780 785 784 790 797 795 794 794 790 787 778 770 765 757 755 754 755 757 755 754 754 757 755 751 752 755 768 771 767 767 766 767 767 768 769 771 773 776 778 780 782 784 785 787 789 791 793 794 796 797 798 800 801 802 804 805 807 808 809 810 811 811 812 814 815 816 817 818 819 820 821 822 823 824 824 825 825 826 827 827 827 828 829 828 828 829 831 832 833 833 834 834 834 835 836 837 838
777 782 782 789 798 796 792 791 787 787 777 766 764 758 756 755 756 756 755 758 759 757 752 748 749 756 767 771 770 768 767 768 769 770 772 774 776 778 780 782 784 786 787 789 790 792 793 795 797 798 799 801 802 803 804 805 807 808 809 810 811 811 813 814 816 817 818 819 820 821 822 822 823 824 825 826 826 827 828 828 828 829 830 830 829 830 831 832 834 834 835 835 835 835 836 837 838
776 780 782 787 795 793 790 788 786 786 776 764 763 759 757 756 754 755 755 760 760 753 750 749 749 757 765 768 770 766 766 769 770 772 774 777 779 781 783 784 786 788 789 790 791 793 794 796 798 799 800 801 802 803 804 805 807 807 809 810 811 812 814 815 816 817 818 819 820 822 822 823 824 824 826 826 827 828 828 829 830 830 830 830 830 830 832 833 834 835 836 835 836 836 837 838 839
776 778 784 788 791 792 790 787 786 785 774 764 762 760 758 755 752 756 755 755 757 753 752 754 752 756 760 761 763 762 766 769 771 773 776 780 782 783 785 786 788 789 790 791 792 794 795 797 798 800 800 801 802 803 804 805 807 807 809 811 812 813 814 816 817 818 819 820 821 822 823 824 824 825 826 827 827 828 829 830 831 831 831 831 831 831 832 833 834 835 836 836 836 837 837 838 839
775 778 787 791 790 791 788 785 783 780 771 763 761 761 762 758 753 753 751 751 757 757 756 757 754 754 756 756 758 761 766 769 771 775 777 782 784 786 787 788 789 789 791 792 793 795 796 798 798 799 800 801 802 803 804 805 807 808 810 811 813 814 815 816 817 818 820 821 822 822 823 824 825 825 826 827 828 829 829 830 831 832 832 832 832 832 833 834 835 836 837 837 837 837 838 839 840
777 784 790 789 788 786 781 778 775 773 769 764 761 763 764 761 757 753 752 756 759 760 760 759 757 755 755 756 758 761 766 769 772 775 779 783 784 785 785 785 786 787 790 792 793 794 795 795 796 797 798 800 801 803 804 805 807 808 810 811 813 814 815 816 817 818 820 821 822 823 824 825 825 826 827 828 828 829 830 831 832 833 832 832 832 833 833 834 835 837 837 837 837 838 839 840 841
779 789 792 785 782 780 774 773 771 771 768 765 763 762 763 761 759 755 756 763 761 762 764 761 761 760 758 758 760 763 766 769 771 774 777 779 780 779 780 782 786 788 790 790 791 791 791 792 794 795 797 799 801 802 804 805 806 807 809 811 813 814 815 817 817 818 820 821 822 823 825 826 827 827 828 829 829 830 830 831 832 833 833 833 833 833 834 835 836 837 838 838 838 838 839 841 841
780 786 788 780 777 775 772 772 770 769 767 767 764 761 762 759 757 756 758 764 763 763 765 763 763 762 761 761 761 764 766 769 771 772 775 777 778 778 778 780 783 785 787 787 788 789 790 792 793 795 796 799 800 802 804 805 806 807 809 811 812 814 815 817 818 819 820 821 822 824 825 827 828 828 829 829 830 831 831 832 833 833 834 834 834 834 834 835 836 837 838 838 838 839 840 841 842
780 781 780 775 775 774 770 769 767 766 767 767 764 762 762 757 755 757 759 764 763 760 758 759 761 759 760 761 762 764 767 769 771 773 776 778 779 778 777 776 776 777 781 784 786 788 789 790 791 793 795 798 800 802 804 805 807 808 810 811 813 814 815 817 818 819 820 821 822 824 825 827 828 828 829 830 830 831 832 833 833 834 834 835 835 835 835 836 836 837 838 838 839 840 841 842 843
779 776 773 772 773 774 769 766 765 765 767 766 765 765 761 757 756 757 760 761 757 752 751 753 757 757 758 760 761 764 767 770 773 775 777 777 776 776 776 776 775 776 778 780 782 784 786 787 789 791 793 796 799 801 803 806 807 809 810 811 813 814 815 817 818 819 820 822 823 824 825 826 827 828 829 830 831 832 833 834 834 834 835 835 836 836 836 836 837 838 838 839 839 841 842 843 844
779 774 769 771 771 772 768 764 763 763 767 767 764 763 761 760 759 756 758 757 752 750 748 749 754 757 758 760 762 765 768 772 774 775 775 774 774 774 773 774 776 778 779 781 782 784 785 786 788 789 792 795 798 800 803 805 807 809 810 811 812 814 816 817 818 820 821 823 824 825 826 826 827 828 829 831 832 833 834 834 835 835 836 836 837 837 838 838 839 839 839 840 840 841 843 844 844
778 774 769 769 769 769 766 764 762 763 766 764 762 762 761 762 761 755 754 753 752 750 747 749 753 755 758 761 763 766 769 772 773 773 772 773 773 772 773 774 777 781 782 784 785 786 787 788 788 789 791 794 797 799 802 804 807 809 810 811 812 814 816 817 818 820 821 822 824 825 826 827 828 829 830 831 832 833 834 835 835 836 836 837 838 839 839 839 840 840 841 841 841 842 843 844 845
775 774 769 767 766 766 764 764 762 761 761 761 761 760 758 759 759 755 752 751 752 750 749 750 753 756 759 762 764 766 769 771 771 772 772 773 773 775 777 777 778 781 783 784 786 787 788 790 790 791 792 794 797 799 801 803 805 808 809 811 813 814 816 818 819 820 821 822 823 825 826 827 828 829 830 831 832 834 835 835 836 836 837 838 839 839 840 840 841 841 842 842 842 843 844 845 845
771 769 768 765 765 763 763 763 760 759 758 758 760 758 755 756 757 755 751 751 752 751 753 753 754 757 760 763 765 766 768 769 769 770 772 774 776 777 779 779 779 781 783 784 787 788 789 791 792 793 795 796 798 800 802 803 805 807 809 811 813 814 817 820 820 820 821 822 823 825 826 828 828 829 830 831 832 834 835 836 836 837 838 839 839 840 840 841 841 842 842 842 843 844 844 845 846
767 766 766 764 765 764 763 762 758 759 757 756 758 756 754 756 757 756 752 752 752 753 756 756 756 759 761 763 764 766 767 767 767 770 772 774 776 777 778 778 779 782 784 785 787 789 791 792 793 794 796 798 799 800 802 803 805 807 809 811 813 815 817 820 820 820 820 822 824 825 826 827 828 829 830 832 833 834 835 836 837 838 838 839 839 840 840 841 842 842 842 843 843 844 845 845 846
765 765 766 763 764 764 763 761 758 759 756 753 755 754 753 756 756 752 750 752 751 753 758 758 758 761 762 764 765 766 766 767 768 770 770 770 771 773 775 777 779 783 785 786 788 789 791 792 793 795 796 798 800 801 802 803 804 806 809 811 813 815 816 819 820 820 821 823 825 826 826 827 828 830 831 832 833 834 835 836 837 838 839 839 839 840 841 841 842 842 843 843 844 844 845 846 846
765 765 768 765 762 762 761 759 757 758 756 750 753 757 755 754 752 747 748 751 751 754 758 759 759 761 763 764 765 766 766 767 769 770 771 771 771 772 774 776 780 783 785 787 788 789 791 792 793 795 797 798 800 801 803 805 806 807 809 811 813 814 816 818 820 821 822 824 825 826 826 826 828 830 831 832 833 835 836 836 837 838 839 839 840 840 841 841 842 842 843 844 844 845 845 846 846
766 766 769 769 768 766 761 760 758 757 756 749 754 767 762 749 747 749 750 750 752 757 758 759 760 760 762 763 765 766 765 767 768 770 773 774 776 776 777 778 780 783 785 787 787 789 791 792 793 795 797 798 800 802 803 805 807 808 808 810 812 814 816 818 819 821 823 825 825 825 826 826 828 829 831 832 833 835 836 836 837 838 839 839 840 840 841 842 842 843 843 844 845 845 845 846 846
769 769 771 777 779 771 761 760 760 756 755 750 754 770 765 748 747 752 751 748 751 757 758 759 759 760 761 761 763 765 765 766 768 771 774 775 778 779 779 780 781 783 784 786 787 788 790 792 793 795 797 798 800 802 802 804 807 808 808 810 812 814 816 818 819 821 823 824 824 825 826 826 828 829 830 832 833 835 836 836 837 838 839 839 840 840 841 842 842 843 844 844 845 845 846 846 846
774 775 777 782 783 777 765 758 760 757 755 752 756 769 765 750 749 752 751 751 751 755 757 757 758 759 760 761 762 764 765 767 769 771 774 776 777 778 779 780 781 783 784 785 787 789 790 792 794 795 797 798 800 802 803 805 807 808 808 810 812 814 816 818 820 821 823 823 824 825 826 827 828 829 831 832 833 834 835 836 837 838 838 839 839 840 841 842 842 843 844 845 845 845 846 846 847
781 782 782 782 782 782 772 760 759 759 756 755 758 766 763 752 750 753 752 753 754 756 757 756 757 758 759 760 761 763 765 766 768 770 773 775 777 777 778 779 781 782 784 785 787 789 790 792 794 795 797 798 800 802 803 805 806 807 809 810 812 815 817 818 820 821 822 823 824 825 826 827 828 829 831 832 833 834 834 836 837 837 838 839 839 840 841 842 842 843 844 845 845 845 846 846 847
785 785 783 783 782 782 778 766 760 759 759 760 761 764 762 751 749 753 753 753 756 758 758 756 756 757 757 759 761 762 764 766 767 769 772 774 775 777 777 779 780 782 784 785 787 789 790 792 794 795 797 798 800 801 802 804 805 807 809 811 813 815 817 818 820 821 822 824 825 825 826 827 828 829 831 832 832 833 834 835 836 837 838 839 839 840 841 842 842 843 844 845 846 846 846 847 848
783 783 781 783 782 781 782 773 763 760 762 764 765 765 760 752 749 752 753 754 755 756 756 756 756 756 757 758 761 762 763 764 766 768 771 773 774 776 777 779 780 782 784 785 787 788 790 792 794 795 796 798 799 800 802 803 805 807 809 811 813 815 816 818 819 821 822 824 825 825 827 827 828 830 830 831 832 833 834 835 836 837 838 839 839 840 841 842 842 843 844 844 846 846 847 847 849
779 781 781 783 782 779 778 773 765 763 766 766 764 763 759 753 750 750 752 753 754 755 756 756 756 757 757 759 760 761 762 763 765 767 769 771 773 775 776 778 780 782 784 785 786 788 789 791 793 794 795 797 798 800 802 803 805 807 809 811 813 814 816 818 819 821 822 823 825 825 826 827 828 829 830 831 832 833 834 835 836 837 838 838 839 840 841 842 843 843 844 844 845 847 848 848 849
779 780 781 782 783 778 774 772 765 762 768 766 760 760 759 755 750 747 750 753 755 756 757 756 755 755 755 757 759 759 761 763 765 767 769 771 772 774 776 778 780 782 783 785 785 786 788 790 792 793 794 796 798 799 801 803 804 806 808 810 811 813 815 817 819 821 822 823 824 825 826 827 828 829 830 831 832 833 834 834 835 837 838 838 839 840 841 842 843 843 844 845 846 846 847 849 850
779 780 780 781 782 777 771 770 765 761 768 766 760 762 760 753 749 746 749 754 755 753 754 754 752 752 753 755 757 759 761 763 765 767 769 770 772 774 776 777 779 781 782 784 784 785 787 789 791 792 794 795 797 799 800 802 804 805 807 808 810 813 815 817 819 820 822 823 824 825 826 827 827 828 829 830 831 832 833 834 835 836 837 838 839 840 842 842 843 844 844 846 847 847 848 849 851
779 781 783 782 779 775 771 768 764 763 768 764 760 763 759 751 749 746 748 750 747 745 745 747 747 749 751 753 755 758 760 763 764 766 768 769 771 773 775 777 778 780 782 783 784 784 786 788 790 792 793 795 796 798 800 801 803 805 807 809 811 813 815 817 819 820 822 822 823 824 825 826 827 828 829 830 831 832 833 834 835 836 837 838 839 840 841 842 843 844 845 845 847 848 849 851 852
781 782 783 781 777 778 776 769 764 763 766 764 760 763 758 750 747 742 744 746 741 740 740 740 741 743 746 748 751 755 758 761 763 765 767 768 771 772 774 777 778 780 782 783 783 784 785 787 789 791 792 794 796 797 799 801 803 806 808 810 812 814 816 817 819 820 821 822 823 824 825 825 826 827 828 829 830 831 832 833 834 835 837 838 839 840 841 842 843 844 845 846 846 848 850 851 852
780 779 779 779 776 778 777 772 768 764 763 762 761 765 757 749 746 739 741 747 743 741 742 742 742 742 745 747 750 753 756 758 761 763 765 768 770 772 774 777 778 779 781 782 783 784 785 787 788 790 791 793 795 797 799 801 803 806 808 810 813 814 816 817 818 819 820 821 822 823 824 825 826 827 828 829 830 831 831 833 834 835 836 837 838 839 841 842 843 844 845 846 846 847 849 851 852
779 774 771 772 772 773 772 773 775 773 767 761 762 769 760 747 747 745 746 750 747 744 745 744 743 743 746 748 750 753 756 757 759 761 764 767 769 771 774 776 777 778 780 782 783 784 786 787 788 789 791 792 795 797 799 802 803 805 807 809 811 813 815 816 817 818 819 820 822 823 824 825 826 826 827 829 830 831 831 832 834 834 836 837 838 839 840 841 843 844 845 846 847 847 848 851 852
780 768 761 765 769 771 772 775 777 776 770 763 763 771 767 751 746 751 753 753 750 748 746 744 744 744 745 746 747 751 755 756 758 760 763 766 769 771 772 775 776 778 780 782 783 785 786 788 788 789 791 793 795 797 800 802 804 806 808 809 811 812 814 815 817 818 819 820 822 823 824 825 825 826 827 829 830 830 831 832 833 834 835 836 837 839 840 841 842 844 845 846 847 848 849 850 851
774 762 757 762 766 769 772 776 777 773 768 766 763 767 771 760 750 755 757 755 753 751 748 745 743 743 743 744 746 750 753 755 757 759 762 765 767 769 770 773 775 777 780 782 783 785 787 788 789 789 791 793 795 798 800 802 804 806 808 809 811 812 814 815 817 818 819 821 822 823 824 825 825 827 828 829 830 830 831 832 833 834 835 836 837 838 840 841 842 843 845 846 847 848 849 850 851
762 757 759 759 760 765 768 772 776 774 773 771 764 765 772 763 753 757 758 756 757 752 748 745 742 741 742 743 746 749 753 755 756 758 760 763 765 766 769 772 774 777 779 782 783 786 787 789 789 790 791 793 795 798 800 803 804 806 808 809 811 813 814 816 817 818 820 821 822 823 824 825 826 827 828 829 830 831 831 832 833 834 835 836 837 838 839 841 842 843 845 846 847 848 849 850 850
755 755 760 759 761 765 767 772 772 774 779 774 764 764 770 762 754 760 759 755 757 751 746 744 741 741 742 743 747 749 753 754 756 758 759 761 764 765 768 771 774 777 780 782 783 786 787 789 790 790 792 794 796 798 800 803 805 806 808 809 811 813 814 816 817 819 820 821 823 823 824 826 827 827 828 829 830 831 832 832 833 834 835 836 837 838 839 841 842 843 844 845 846 847 848 849 850
753 756 759 761 766 765 767 772 770 776 780 769 760 760 765 763 758 761 757 750 750 748 746 744 741 741 741 742 747 749 751 754 755 758 759 761 763 765 768 772 774 777 780 782 783 785 787 789 790 791 793 795 796 799 801 803 805 807 808 810 812 813 815 817 818 819 821 822 823 824 825 826 827 828 829 830 830 831 832 833 834 835 835 836 837 838 839 841 842 843 844 845 845 846 847 848 849
755 758 759 763 768 767 771 772 771 782 779 763 761 763 765 765 757 755 752 745 747 748 746 744 740 739 739 741 745 748 750 753 755 757 758 760 763 765 768 771 774 777 779 782 784 786 788 789 791 792 793 795 797 799 801 803 805 807 809 811 812 814 816 817 818 820 821 822 823 825 826 827 828 828 829 830 831 831 832 833 834 835 835 836 837 838 840 841 842 843 843 844 845 846 846 847 848
760 762 765 771 776 776 778 777 777 782 773 763 767 765 764 762 751 751 751 744 747 750 746 744 740 740 740 743 747 748 750 752 754 755 756 759 762 764 768 771 774 777 779 782 784 786 788 790 791 792 793 795 797 800 802 804 806 808 810 811 813 815 816 818 819 821 822 823 824 825 826 827 828 829 830 830 831 831 832 833 834 835 835 836 837 838 840 841 841 842 843 844 844 845 846 846 847
762 763 765 772 780 783 784 786 788 781 766 765 772 766 762 758 751 753 752 746 747 748 746 744 740 740 742 744 749 750 751 752 753 754 755 758 762 765 769 772 774 777 779 782 784 786 788 790 791 792 794 796 798 800 802 804 806 808 810 812 814 815 817 818 820 821 823 824 825 826 826 827 828 829 830 831 831 832 832 833 834 835 835 837 838 838 839 840 841 842 843 844 844 845 845 846 847
758 756 757 762 766 770 774 775 775 771 763 766 770 765 760 755 752 752 749 747 747 743 743 741 737 737 739 743 748 750 752 752 753 754 755 759 763 766 769 772 775 777 779 782 784 786 788 790 791 792 794 796 798 800 802 805 807 809 811 813 815 816 817 819 820 822 823 824 826 826 827 828 829 830 830 831 831 832 832 833 834 835 836 837 838 839 840 840 841 842 843 844 844 845 845 846 847
754 753 754 756 750 749 763 771 768 767 766 767 768 765 761 757 753 751 748 747 746 742 740 737 735 736 738 742 746 748 750 751 752 754 757 761 764 767 769 772 775 777 779 781 783 786 788 789 791 792 794 796 799 801 803 805 807 809 811 813 815 817 818 819 820 822 823 825 826 826 827 828 829 830 830 831 832 832 833 834 834 835 836 837 838 839 839 840 841 842 843 844 844 845 846 846 847
751 753 748 748 744 740 755 773 779 776 769 769 770 765 761 759 754 750 748 747 748 746 742 739 738 738 739 742 744 746 749 750 753 755 758 762 764 767 769 772 775 777 779 781 783 785 787 788 790 792 795 797 799 802 803 805 807 809 811 813 815 816 818 819 820 821 823 824 825 826 827 828 829 830 830 831 832 833 833 834 835 835 836 837 837 838 839 840 841 842 843 844 844 845 846 846 847
744 749 740 740 747 745 749 762 774 777 771 769 773 771 765 762 757 753 751 750 751 751 748 746 745 743 743 745 746 747 749 750 753 755 758 761 764 766 769 772 775 777 779 780 782 785 787 789 791 793 796 798 800 803 804 806 808 809 811 813 814 816 817 818 819 821 822 823 825 826 827 827 828 829 830 831 832 833 833 834 834 835 836 836 837 838 839 840 840 842 842 843 844 844 845 846 846
733 734 732 737 748 750 753 759 764 771 775 770 772 778 772 762 758 758 756 754 754 753 752 751 750 749 750 750 750 750 751 751 752 754 757 760 763 765 768 772 774 776 778 780 782 785 788 791 794 796 799 801 802 804 805 807 808 810 812 813 815 816 818 819 820 821 823 824 825 826 827 827 828 829 830 831 832 833 833 834 834 835 835 836 837 838 839 839 840 842 842 843 844 844 845 845 846
732 733 734 738 744 747 751 756 755 759 771 773 771 772 766 759 764 766 762 759 756 755 756 755 754 755 754 753 751 751 752 752 750 752 756 759 761 763 766 770 773 775 777 779 783 786 790 793 795 797 799 801 803 804 805 807 808 810 812 814 815 817 818 820 821 822 823 824 825 826 826 827 828 829 830 831 832 832 833 833 834 835 835 836 837 838 838 839 840 841 842 843 844 844 845 845 846
734 737 740 741 743 746 748 755 758 755 761 771 772 765 758 761 769 769 765 762 758 756 758 758 758 758 757 757 755 754 756 756 753 752 756 761 761 762 766 770 773 776 778 780 784 788 790 792 793 794 796 797 798 800 802 804 806 809 812 813 815 817 818 820 821 822 823 824 825 826 827 828 828 829 830 831 831 832 832 833 833 834 835 836 837 838 839 840 840 842 843 843 844 845 845 846 846
736 734 739 742 744 746 748 756 764 759 757 766 768 758 754 763 768 765 765 764 759 758 757 759 761 760 759 761 760 759 759 760 759 756 757 762 763 764 769 773 775 778 780 782 784 787 788 789 789 790 792 793 794 795 797 800 803 806 810 812 814 816 817 819 821 822 823 823 825 826 827 828 828 829 830 831 832 832 832 833 833 834 836 836 838 839 839 841 841 842 843 844 845 846 846 847 847